Tucson Davis Monthan, AZ

8:31 PM MST on June 24, 2018 (GMT -0700)
Davis-Monthan Air Force Base

Weather History for KDMA - December, 2017

Change the Weather History Date:

Friday, December 15, 2017

  Actual Average Record
Temperature  
Mean Temperature 56 °F -  
Max Temperature 71 °F 65 °F 81 °F (1969)
Min Temperature 41 °F 37 °F 23 °F (1987)
Degree Days  
Heating Degree Days 9    
Growing Degree Days 6 (Base 50)    
Moisture  
Dew Point 18 °F    
Average Humidity 25    
Maximum Humidity 43    
Minimum Humidity 12    
Precipitation  
Precipitation 0.00 in - - ()
Sea Level Pressure  
Sea Level Pressure 30.06 in    
Wind  
Wind Speed 7 mph (SE)    
Max Wind Speed 17 mph    
Max Gust Speed 22 mph    
Visibility 10 miles    
Events      
Averages and records for this station are not official NWS values.
T = Trace of Precipitation, MM = Missing Value Source: NWS Daily Summary

Daily Weather History Graph

Daily Weather History Graph

Search for Another Location

Airport or City:

Astronomy

Dec. 15, 2017 Rise Set
Actual Time 7:17 AM MST 5:20 PM MST
Civil Twilight 6:50 AM MST 5:47 PM MST
Nautical Twilight 6:19 AM MST 6:18 PM MST
Astronomical Twilight 5:49 AM MST 6:48 PM MST
Moon 4:51 AM MST (12/15) 3:56 PM MST (12/15)
Length of Visible Light 10h 57m
Length of Day
10h 03m
Waning Crescent, 6% of the Moon is Illuminated
Dec 15
Waning Crescent
Dec 17
New
Dec 26
First Quarter
Jan 1
Full
Jan 8
Last Quarter

Hourly Weather History & Observations

Time (MST) Temp. Windchill Dew Point Humidity Pressure Visibility Wind Dir Wind Speed Gust Speed Precip Events Conditions
12:58 AM 43.3 °F 39.9 °F 14.0 °F 31% 30.06 in 10.0 mi East 5.8 mph - N/A   Clear
1:58 AM 50.5 °F - 18.7 °F 28% 30.06 in 10.0 mi East 6.9 mph - N/A   Clear
2:58 AM 51.3 °F - 19.2 °F 28% 30.06 in 10.0 mi East 8.1 mph - N/A   Clear
3:58 AM 47.7 °F - 17.8 °F 30% 30.09 in 10.0 mi WNW 3.5 mph - N/A   Clear
4:58 AM 41.5 °F 38.6 °F 16.0 °F 36% 30.13 in 10.0 mi SSW 4.6 mph - N/A   Clear
5:58 AM 42.6 °F 39.0 °F 19.4 °F 39% 30.14 in 10.0 mi SE 5.8 mph - N/A   Clear
6:58 AM 45.9 °F 41.7 °F 24.6 °F 43% 30.14 in 10.0 mi SSE 8.1 mph - N/A   Clear
7:58 AM 46.4 °F 42.4 °F 23.4 °F 40% 30.16 in 10.0 mi SE 8.1 mph - N/A   Clear
8:58 AM 50.4 °F - 26.4 °F 39% 30.17 in 10.0 mi WSW 3.5 mph - N/A   Clear
9:58 AM 57.2 °F - 22.6 °F 26% 30.17 in 10.0 mi SSE 4.6 mph - N/A   Clear
10:58 AM 62.6 °F - 21.0 °F 20% 30.16 in 10.0 mi SSE 17.3 mph 21.9 mph N/A   Clear
11:58 AM 65.7 °F - 19.6 °F 17% 30.11 in 10.0 mi SE 13.8 mph 20.7 mph N/A   Clear
12:58 PM 67.3 °F - 18.0 °F 15% 30.08 in 10.0 mi SSE 6.9 mph - N/A   Clear
1:58 PM 71.6 °F - 18.1 °F 13% 30.04 in 10.0 mi Calm Calm - N/A   Clear
2:58 PM 70.0 °F - 16.9 °F 13% 30.01 in 10.0 mi NNW 6.9 mph - N/A   Clear
3:58 PM 70.7 °F - 15.6 °F 12% 30.00 in 10.0 mi Calm Calm - N/A   Clear
4:58 PM 69.4 °F - 14.5 °F 12% 30.00 in 10.0 mi SSE 5.8 mph - N/A   Clear
5:58 PM 59.7 °F - 13.5 °F 16% 30.01 in 10.0 mi ENE 8.1 mph - N/A   Clear
6:58 PM 55.8 °F - 14.2 °F 19% 30.01 in 10.0 mi SE 5.8 mph - N/A   Clear
7:58 PM 49.8 °F - 13.5 °F 23% 30.01 in 10.0 mi SE 6.9 mph - N/A   Clear
8:58 PM 48.9 °F - 14.5 °F 25% 30.01 in 10.0 mi East 8.1 mph - N/A   Clear
9:58 PM 48.9 °F - 16.3 °F 27% 29.99 in 10.0 mi SE 9.2 mph - N/A   Clear
10:58 PM 49.8 °F - 16.3 °F 26% 29.97 in 10.0 mi SE 11.5 mph - N/A   Clear
11:58 PM 50.5 °F - 16.9 °F 26% 29.96 in 10.0 mi SE 15.0 mph - N/A   Clear